This is the latest recevied weather packets stored in our database for station/object VK3MAK-1. If no packets are shown the sender has not sent any weather packets the latest 10 day(s).
| Time | Temp. | Humidity | Pressure | Rain* | Wind** | Luminosity | Snow |
|---|---|---|---|---|---|---|---|
| 1778104203 | 6.11° C | 93% | 1022.9 hPa | 0 mm | 2.68 m/s, 248° | - | - |
| 1778103603 | 6.11° C | 93% | 1022.9 hPa | 0 mm | 2.68 m/s, 248° | - | - |
| 1778103003 | 6.67° C | 83% | 1022.6 hPa | 0 mm | 3.13 m/s, 248° | - | - |
| 1778102403 | 6.67° C | 83% | 1022.6 hPa | 0 mm | 3.13 m/s, 248° | - | - |
| 1778101804 | 6.67° C | 83% | 1022.6 hPa | 0 mm | 3.13 m/s, 248° | - | - |
| 1778101204 | 6.11° C | 85% | 1022.3 hPa | 0 mm | 3.58 m/s, 248° | - | - |
| 1778100603 | 6.11° C | 85% | 1022.3 hPa | 0.25 mm | 3.58 m/s, 248° | - | - |
| 1778100003 | 6.11° C | 85% | 1022.3 hPa | 0.25 mm | 3.58 m/s, 248° | - | - |
| 1778099403 | 6.67° C | 88% | 1021.9 hPa | 0 mm | 3.58 m/s, 248° | - | - |
| 1778098803 | 6.67° C | 88% | 1021.9 hPa | 0 mm | 3.58 m/s, 248° | - | - |
| 1778098203 | 6.67° C | 88% | 1021.9 hPa | 0 mm | 3.58 m/s, 248° | - | - |
| 1778097606 | 6.67° C | 90% | 1021.8 hPa | 0 mm | 5.36 m/s, 225° | - | - |
| 1778097003 | 6.67° C | 90% | 1021.8 hPa | 0.25 mm | 5.36 m/s, 225° | - | - |
| 1778096403 | 6.67° C | 90% | 1021.8 hPa | 0.25 mm | 5.36 m/s, 225° | - | - |
| 1778095803 | 6.11° C | 99% | 1022.1 hPa | 0 mm | 3.13 m/s, 203° | - | - |
| 1778095203 | 6.11° C | 99% | 1022.1 hPa | 0 mm | 3.13 m/s, 203° | - | - |
| 1778094604 | 6.11° C | 99% | 1022.1 hPa | 0 mm | 3.13 m/s, 203° | - | - |
| 1778094003 | 5° C | 10% | - | 0 mm | 1.34 m/s, 248° | - | - |
| 1778093403 | 5° C | 10% | - | 0.25 mm | 1.34 m/s, 248° | - | - |
| 1778092803 | 5° C | 10% | - | 0.25 mm | 1.34 m/s, 248° | - | - |
| 1778092203 | 3.89° C | 10% | - | 0 mm | 2.24 m/s, 293° | - | - |
| 1778091603 | 3.89° C | 10% | - | 0 mm | 2.24 m/s, 293° | - | - |
| 1778091003 | 3.89° C | 10% | - | 0 mm | 2.24 m/s, 293° | - | - |
| 1778090403 | 4.44° C | 97% | 1021.4 hPa | 1.78 mm | 4.02 m/s, 225° | - | - |
| 1778089803 | 4.44° C | 97% | 1021.4 hPa | 2.29 mm | 4.02 m/s, 225° | - | - |
* Rain latest hour (hover to see other rain measurements)
** Current wind speed in m/s (hover to see current wind gust speed)